FW6002 Weather Reports


time (UTC)temp
C
wind
direction
speed
KPH
gust
KPH
rain 1hr
cm
rain 24hr
cm
rain mn
cm
humidity
%
barometer
mb
20260508014055 16 0 0.0 0.0 0.00 0.00 0.00 79 1014.7
20260508013555 16 0 0.0 0.0 0.00 0.00 0.00 79 1014.7
20260508013106 16 0 0.0 0.0 0.00 0.00 0.00 80 1014.5
20260508012555 17 0 0.0 0.0 0.00 0.00 0.00 79 1014.7
20260508012057 17 0 0.0 0.0 0.00 0.00 0.00 79 1014.7
20260508011603 17 0 0.0 0.0 0.00 0.00 0.00 78 1015.0
20260508011056 17 0 0.0 0.0 0.00 0.00 0.00 78 1015.1
20260508010554 17 0 0.0 0.0 0.00 0.00 0.00 78 1015.0
20260508010057 17 0 0.0 0.0 0.00 0.00 0.00 77 1014.8
20260508005557 17 0 0.0 0.0 0.00 0.00 0.00 77 1014.9
20260508005100 17 0 0.0 0.0 0.00 0.00 0.00 76 1014.8
20260508004559 17 0 0.0 0.0 0.00 0.00 0.00 76 1014.9
20260508004055 17 0 0.0 0.0 0.00 0.00 0.00 75 1014.7
20260508003555 18 0 0.0 0.0 0.00 0.00 0.00 73 1015.0
20260508003104 18 0 0.0 1.6 0.00 0.00 0.00 70 1015.0
20260508002555 18 0 0.0 1.6 0.00 0.00 0.00 70 1015.0
20260508002055 18 0 0.0 1.6 0.00 0.00 0.00 68 1014.8
20260508001601 18 0 0.0 0.0 0.00 0.00 0.00 69 1014.9
20260508001055 19 0 0.0 0.0 0.00 0.00 0.00 69 1014.9
20260508000555 18 0 0.0 0.0 0.00 0.00 0.00 69 1015.0
20260508000057 18 0 0.0 0.0 0.00 0.00 0.00 70 1014.9
20260507235554 18 0 0.0 0.0 0.00 0.00 0.00 68 1015.0
20260507235054 18 0 0.0 1.6 0.00 0.00 0.00 67 1015.1
20260507234557 19 0 0.0 3.2 0.00 0.00 0.00 67 1015.2
20260507234056 19 0 0.0 3.2 0.00 0.00 0.00 66 1015.4
20260507233555 19 0 0.0 3.2 0.00 0.00 0.00 66 1015.5
20260507233056 19 0 0.0 1.6 0.00 0.00 0.00 65 1015.5
20260507232552 19 220 0.0 3.2 0.00 0.00 0.00 65 1015.5
20260507232054 19 0 0.0 3.2 0.00 0.00 0.00 65 1015.5
20260507231559 19 0 0.0 3.2 0.00 0.00 0.00 64 1015.4
20260507231055 19 0 0.0 4.8 0.00 0.00 0.00 65 1015.3
20260507230555 19 0 0.0 4.8 0.00 0.00 0.00 65 1015.4
20260507230057 20 0 0.0 4.8 0.00 0.00 0.00 66 1015.4
20260507225556 20 0 0.0 3.2 0.00 0.05 0.00 64 1015.6
20260507225055 20 135 0.0 3.2 0.00 0.05 0.00 64 1015.3
20260507224601 20 0 0.0 3.2 0.00 0.05 0.00 65 1015.4
20260507224054 20 0 0.0 3.2 0.00 0.05 0.00 65 1015.5
20260507223558 20 0 0.0 1.6 0.00 0.05 0.00 63 1015.4
20260507223052 20 0 0.0 4.8 0.00 0.05 0.00 65 1015.4
20260507222557 20 0 0.0 4.8 0.00 0.05 0.00 64 1015.3
20260507222054 20 0 0.0 3.2 0.00 0.05 0.00 66 1015.2
20260507221556 20 32 0.0 3.2 0.00 0.05 0.00 64 1015.6
20260507221055 20 0 0.0 4.8 0.00 0.05 0.00 64 1015.8
20260507220554 20 0 0.0 4.8 0.00 0.05 0.00 66 1015.8
20260507220057 20 0 0.0 4.8 0.00 0.05 0.00 65 1015.9
20260507215557 20 88 0.0 4.8 0.00 0.05 0.00 64 1016.0
20260507215054 20 0 0.0 4.8 0.00 0.05 0.00 63 1015.8
20260507214559 20 27 1.6 4.8 0.00 0.05 0.00 63 1016.0
20260507214054 20 59 0.0 3.2 0.00 0.05 0.00 63 1015.9
20260507213554 20 175 0.0 3.2 0.00 0.05 0.00 63 1015.8
20260507213056 20 126 0.0 6.4 0.00 0.05 0.00 62 1016.0
20260507212554 20 0 0.0 6.4 0.00 0.05 0.00 63 1016.0
20260507212055 20 72 0.0 6.4 0.00 0.05 0.00 62 1016.3
20260507211554 20 206 0.0 4.8 0.00 0.05 0.00 63 1016.1
20260507211054 20 34 0.0 4.8 0.00 0.05 0.00 64 1016.3
20260507210556 20 0 0.0 6.4 0.00 0.05 0.00 64 1016.3
20260507210120 20 65 0.0 6.4 0.00 0.05 0.00 64 1016.5
20260507205556 20 217 1.6 6.4 0.00 0.05 0.00 63 1016.6
20260507205056 20 0 0.0 9.7 0.00 0.05 0.00 64 1016.5
20260507204600 20 53 0.0 9.7 0.00 0.05 0.00 63 1016.7
20260507204059 20 53 0.0 4.8 0.00 0.05 0.00 63 1016.9
20260507203556 20 0 0.0 4.8 0.00 0.05 0.00 61 1016.8
20260507203102 20 97 1.6 4.8 0.00 0.05 0.00 60 1016.8
20260507202555 21 0 0.0 8.0 0.00 0.05 0.00 62 1016.5
20260507202058 21 153 1.6 8.0 0.00 0.05 0.00 62 1016.6
20260507201554 20 130 1.6 8.0 0.00 0.05 0.00 61 1016.7
20260507201059 21 0 0.0 3.2 0.00 0.05 0.00 62 1016.8
20260507200556 21 158 0.0 4.8 0.00 0.05 0.00 61 1016.7
20260507200106 21 0 0.0 4.8 0.00 0.05 0.00 60 1016.6
20260507195558 21 0 0.0 3.2 0.00 0.05 0.00 62 1016.4
20260507195056 21 0 0.0 4.8 0.00 0.05 0.00 62 1016.5
20260507194557 21 0 0.0 4.8 0.00 0.05 0.00 64 1016.6
20260507194059 20 208 0.0 4.8 0.00 0.05 0.00 59 1016.5
20260507193557 21 313 0.0 4.8 0.00 0.05 0.00 62 1016.7
20260507193132 21 0 0.0 4.8 0.00 0.05 0.00 59 1016.6
20260507192555 21 320 0.0 3.2 0.00 0.05 0.00 61 1016.7
20260507192100 21 0 0.0 3.2 0.00 0.05 0.00 62 1016.9
20260507191600 20 0 0.0 4.8 0.00 0.05 0.00 61 1017.0
20260507191100 20 0 1.6 4.8 0.00 0.05 0.00 59 1016.9
20260507190556 21 225 1.6 4.8 0.00 0.05 0.00 60 1017.3
20260507190055 21 0 0.0 4.8 0.00 0.05 0.00 60 1017.4
20260507185556 21 0 0.0 6.4 0.00 0.05 0.00 63 1017.6
20260507185056 21 302 0.0 6.4 0.00 0.05 0.00 61 1017.8
20260507184558 21 157 0.0 3.2 0.00 0.05 0.00 61 1018.0
20260507184100 21 328 0.0 3.2 0.00 0.05 0.00 61 1018.0
20260507183555 21 0 0.0 3.2 0.00 0.05 0.00 59 1018.1
20260507183103 22 154 0.0 3.2 0.00 0.05 0.00 61 1018.2
20260507182556 22 0 0.0 3.2 0.00 0.05 0.00 61 1018.0
20260507182055 21 0 0.0 4.8 0.00 0.05 0.00 62 1018.0
20260507181556 20 169 1.6 4.8 0.00 0.05 0.00 61 1018.1
20260507181055 21 244 0.0 4.8 0.00 0.05 0.00 62 1018.0
20260507180558 21 184 1.6 6.4 0.00 0.05 0.00 60 1018.0
20260507180119 21 0 1.6 6.4 0.00 0.05 0.00 58 1018.0
20260507175559 21 43 0.0 4.8 0.00 0.05 0.00 62 1017.9
20260507175054 21 150 0.0 4.8 0.00 0.05 0.00 68 1018.1
20260507174604 21 317 0.0 4.8 0.00 0.05 0.00 66 1018.0
20260507174056 21 0 0.0 4.8 0.00 0.05 0.00 66 1018.1
20260507173552 20 0 0.0 6.4 0.00 0.05 0.00 66 1017.9
20260507173131 20 0 0.0 8.0 0.00 0.05 0.00 64 1018.1
20260507172554 20 287 1.6 8.0 0.00 0.05 0.00 64 1018.2
20260507172051 20 202 0.0 6.4 0.00 0.05 0.00 64 1018.2
20260507171601 21 93 0.0 6.4 0.00 0.05 0.00 68 1018.2
20260507171055 20 254 0.0 3.2 0.00 0.05 0.00 72 1018.4
20260507170557 19 273 0.0 6.4 0.00 0.05 0.00 66 1018.5
20260507170057 19 0 0.0 6.4 0.00 0.05 0.00 69 1018.7
20260507165554 18 0 0.0 4.8 0.00 0.05 0.00 66 1018.7
20260507165055 19 352 0.0 3.2 0.00 0.05 0.00 69 1018.8
20260507164605 19 280 0.0 3.2 0.00 0.05 0.00 68 1019.1
20260507164055 19 0 0.0 3.2 0.00 0.05 0.00 68 1019.2
20260507163554 19 328 0.0 3.2 0.00 0.05 0.00 68 1019.2
20260507163054 18 28 0.0 4.8 0.00 0.05 0.00 69 1019.3
20260507162557 18 0 0.0 4.8 0.00 0.05 0.00 71 1019.6
20260507162056 18 175 0.0 6.4 0.00 0.05 0.00 71 1019.5
20260507161608 18 0 0.0 6.4 0.00 0.05 0.00 70 1019.7
20260507161054 18 259 0.0 4.8 0.00 0.05 0.00 71 1019.6
20260507160554 18 213 0.0 4.8 0.00 0.05 0.00 71 1019.5
20260507160116 18 198 0.0 6.4 0.00 0.05 0.00 73 1019.5
20260507155553 18 0 0.0 6.4 0.00 0.05 0.00 72 1019.5
20260507155054 18 163 0.0 3.2 0.00 0.05 0.00 75 1019.5
20260507154556 18 0 0.0 3.2 0.00 0.05 0.00 73 1019.5
20260507154054 17 0 0.0 3.2 0.00 0.05 0.00 75 1019.5
20260507153552 17 0 0.0 4.8 0.00 0.05 0.00 75 1019.7
20260507153055 18 173 0.0 4.8 0.00 0.05 0.00 73 1019.6
20260507152555 18 31 0.0 3.2 0.00 0.05 0.00 75 1019.5
20260507152055 18 0 0.0 3.2 0.00 0.05 0.00 74 1019.5
20260507151558 17 0 0.0 8.0 0.00 0.05 0.00 79 1019.5
20260507151056 16 174 0.0 8.0 0.00 0.05 0.00 79 1019.7
20260507150554 16 220 0.0 4.8 0.00 0.05 0.00 76 1019.6
20260507150054 16 0 0.0 3.2 0.00 0.05 0.00 76 1019.7
20260507145554 17 0 0.0 3.2 0.00 0.13 0.00 76 1019.9
20260507145054 17 0 0.0 4.8 0.00 0.13 0.00 77 1019.7
20260507144604 17 174 0.0 4.8 0.00 0.13 0.00 78 1019.7
20260507144056 16 15 0.0 4.8 0.00 0.13 0.00 79 1019.7
20260507143555 16 0 0.0 4.8 0.00 0.13 0.00 80 1019.7
20260507143100 16 0 0.0 3.2 0.00 0.13 0.00 82 1019.8
20260507142556 15 0 0.0 3.2 0.00 0.13 0.00 84 1020.0
20260507142056 15 0 0.0 3.2 0.00 0.13 0.00 83 1019.9
20260507141619 15 0 0.0 3.2 0.00 0.13 0.00 84 1020.1
20260507141055 15 0 0.0 3.2 0.00 0.13 0.00 85 1020.1
20260507140557 14 0 0.0 3.2 0.00 0.13 0.00 85 1020.2
20260507140110 14 65 0.0 3.2 0.00 0.13 0.00 84 1020.0
20260507135600 14 0 0.0 3.2 0.00 0.13 0.00 85 1020.1
20260507135056 13 0 0.0 1.6 0.00 0.13 0.00 86 1020.3
20260507134603 13 0 0.0 1.6 0.00 0.13 0.00 87 1020.2
20260507134056 13 0 0.0 3.2 0.00 0.13 0.00 87 1020.2
20260507133556 13 0 0.0 3.2 0.00 0.13 0.00 87 1020.2
20260507133056 13 315 0.0 3.2 0.00 0.13 0.00 88 1020.2
20260507132555 12 0 0.0 3.2 0.00 0.13 0.00 89 1020.0
20260507132055 12 0 0.0 3.2 0.00 0.13 0.00 89 1020.3
20260507131556 12 0 0.0 1.6 0.00 0.13 0.00 89 1020.3
20260507131057 12 0 0.0 1.6 0.00 0.13 0.00 89 1020.2
20260507130556 12 0 0.0 1.6 0.00 0.13 0.00 89 1020.2
20260507130053 12 0 0.0 0.0 0.00 0.13 0.00 90 1020.2
20260507125556 12 0 0.0 0.0 0.00 0.13 0.00 89 1020.2
20260507125056 12 0 0.0 0.0 0.00 0.13 0.00 90 1020.2
20260507124554 12 0 0.0 0.0 0.00 0.13 0.00 90 1020.1
20260507124056 11 0 0.0 1.6 0.00 0.13 0.00 90 1020.0
20260507123556 11 0 0.0 1.6 0.00 0.13 0.00 90 1020.0
20260507123057 11 0 0.0 0.0 0.00 0.13 0.00 90 1020.2
20260507122556 11 0 0.0 0.0 0.00 0.13 0.00 90 1020.3
20260507122056 11 0 0.0 1.6 0.00 0.13 0.00 90 1020.3
20260507121557 11 0 0.0 1.6 0.00 0.13 0.00 89 1020.3
20260507121057 11 0 0.0 0.0 0.00 0.13 0.00 89 1020.3
20260507120555 11 0 0.0 0.0 0.00 0.13 0.00 89 1020.1
20260507120056 11 0 0.0 0.0 0.00 0.13 0.00 89 1020.1
20260507115555 11 0 0.0 0.0 0.00 0.13 0.00 89 1020.3
20260507115054 11 0 0.0 0.0 0.00 0.13 0.00 89 1020.2
20260507114603 11 0 0.0 0.0 0.00 0.13 0.00 89 1020.4
20260507114056 11 0 0.0 0.0 0.00 0.13 0.00 89 1020.4
20260507113557 11 0 0.0 0.0 0.00 0.13 0.00 89 1020.4
20260507113055 11 0 0.0 3.2 0.00 0.13 0.00 89 1020.3
20260507112557 11 0 0.0 3.2 0.00 0.13 0.00 89 1020.2
20260507112056 11 0 0.0 1.6 0.00 0.13 0.00 89 1020.2
20260507111601 11 0 0.0 1.6 0.00 0.13 0.00 89 1020.1
20260507111058 11 0 0.0 1.6 0.00 0.13 0.00 89 1020.0
20260507110554 11 0 0.0 3.2 0.00 0.13 0.00 89 1020.0
20260507110055 11 0 0.0 3.2 0.00 0.13 0.00 89 1019.8
20260507105553 11 17 0.0 1.6 0.00 0.13 0.00 89 1019.8
20260507105053 11 0 0.0 3.2 0.00 0.13 0.00 89 1019.8
20260507104554 11 0 0.0 3.2 0.00 0.13 0.00 89 1019.7
20260507104056 11 0 0.0 3.2 0.00 0.13 0.00 89 1019.6
20260507103556 11 0 0.0 1.6 0.00 0.13 0.00 89 1019.5
20260507103054 11 0 0.0 3.2 0.00 0.13 0.00 89 1019.4
20260507102553 11 0 0.0 3.2 0.00 0.13 0.00 88 1019.3
20260507102055 11 0 0.0 1.6 0.00 0.13 0.00 88 1019.2
20260507101611 11 0 0.0 1.6 0.00 0.13 0.00 88 1018.9
20260507101053 11 16 0.0 1.6 0.00 0.13 0.00 88 1018.8
20260507100554 11 0 0.0 1.6 0.00 0.13 0.00 89 1018.9
20260507100055 11 0 0.0 1.6 0.00 0.13 0.00 88 1018.9
20260507095554 11 0 0.0 3.2 0.00 0.13 0.00 88 1018.6
20260507095054 11 0 0.0 3.2 0.00 0.13 0.00 88 1018.8
20260507094556 11 304 0.0 3.2 0.00 0.13 0.00 88 1018.6
20260507094053 11 0 0.0 4.8 0.00 0.13 0.00 88 1018.4
20260507093556 11 0 0.0 4.8 0.00 0.13 0.00 88 1018.2
20260507093057 11 0 0.0 4.8 0.00 0.13 0.00 88 1018.1
20260507092554 11 0 0.0 3.2 0.00 0.13 0.00 88 1018.1
20260507092055 12 0 0.0 3.2 0.00 0.13 0.00 88 1018.2
20260507091556 12 0 0.0 3.2 0.00 0.13 0.00 88 1017.9
20260507091056 12 0 0.0 3.2 0.00 0.13 0.00 88 1018.0
20260507090555 12 0 0.0 0.0 0.00 0.13 0.00 88 1018.1
20260507090110 12 0 0.0 1.6 0.00 0.13 0.00 88 1017.9
20260507085556 12 0 0.0 1.6 0.00 0.13 0.00 88 1018.0
20260507085054 12 0 0.0 0.0 0.00 0.13 0.00 88 1017.9
20260507084555 12 0 0.0 0.0 0.00 0.13 0.00 88 1017.9
20260507084056 12 0 0.0 0.0 0.00 0.13 0.00 88 1017.9
20260507083556 12 0 0.0 0.0 0.00 0.13 0.00 88 1017.9
20260507083054 12 0 0.0 0.0 0.00 0.13 0.00 88 1017.9
20260507082558 12 0 0.0 1.6 0.00 0.13 0.00 88 1017.7
20260507082055 12 0 0.0 1.6 0.00 0.13 0.00 88 1017.6
20260507081557 12 0 0.0 1.6 0.00 0.13 0.00 88 1017.5
20260507081056 12 0 0.0 1.6 0.00 0.13 0.00 88 1017.4
20260507080556 12 0 0.0 3.2 0.00 0.13 0.00 88 1017.4
20260507075557 12 0 0.0 3.2 0.00 0.13 0.00 88 1017.0
20260507075056 12 19 0.0 3.2 0.00 0.13 0.00 89 1017.1
20260507074558 12 0 0.0 3.2 0.00 0.13 0.00 89 1017.2
20260507074055 12 0 0.0 1.6 0.00 0.13 0.00 89 1017.5
20260507073555 12 188 0.0 1.6 0.00 0.13 0.00 89 1017.5
20260507073053 12 35 0.0 1.6 0.00 0.13 0.00 89 1017.2
20260507072556 12 0 0.0 1.6 0.00 0.13 0.00 89 1017.4
20260507072055 13 0 0.0 1.6 0.00 0.13 0.00 89 1017.2
20260507071604 13 280 0.0 1.6 0.00 0.13 0.00 89 1017.3
20260507071056 13 0 0.0 1.6 0.00 0.13 0.00 89 1016.8
20260507070556 13 0 0.0 1.6 0.00 0.13 0.00 89 1017.1
20260507065556 13 0 0.0 0.0 0.00 0.13 0.00 89 1016.8
20260507065055 13 0 0.0 0.0 0.00 0.13 0.00 89 1016.8
20260507064618 13 0 0.0 1.6 0.00 0.13 0.00 89 1016.8
20260507064055 13 0 0.0 1.6 0.00 0.13 0.00 89 1016.8
20260507063556 13 0 0.0 1.6 0.00 0.13 0.00 89 1016.7
20260507063056 13 0 0.0 3.2 0.00 0.13 0.00 89 1016.4
20260507062553 13 0 0.0 3.2 0.00 0.13 0.00 89 1016.5
20260507062054 13 0 0.0 3.2 0.00 0.13 0.00 90 1016.3
20260507061605 13 0 0.0 3.2 0.00 0.13 0.00 89 1016.5
20260507061053 13 0 0.0 1.6 0.00 0.13 0.00 90 1016.5
20260507060556 13 298 0.0 1.6 0.00 0.13 0.00 90 1016.4
20260507060059 13 0 0.0 1.6 0.00 0.13 0.00 90 1016.4
20260507055556 13 0 0.0 1.6 0.00 0.13 0.00 90 1016.4
20260507055054 13 0 0.0 1.6 0.00 0.13 0.00 90 1016.4
20260507054610 13 0 0.0 4.8 0.00 0.13 0.00 90 1016.5
20260507054055 13 0 0.0 4.8 0.00 0.13 0.00 90 1016.4
20260507053556 13 300 0.0 4.8 0.00 0.13 0.00 90 1016.4
20260507053054 13 0 0.0 3.2 0.00 0.13 0.00 90 1016.5
20260507052555 13 0 0.0 1.6 0.00 0.13 0.00 90 1016.5
20260507052055 13 0 0.0 1.6 0.00 0.13 0.00 90 1016.6
20260507051555 13 0 0.0 1.6 0.00 0.13 0.00 90 1016.5
20260507051052 13 0 0.0 3.2 0.00 0.13 0.00 90 1016.5
20260507050553 13 0 0.0 3.2 0.00 0.13 0.00 90 1016.6
20260507050055 13 0 0.0 3.2 0.00 0.13 0.00 91 1016.3
20260507045556 13 0 0.0 1.6 0.00 0.13 0.13 91 1016.3
20260507045053 13 0 0.0 1.6 0.00 0.13 0.13 91 1016.4
20260507044555 13 0 0.0 1.6 0.00 0.13 0.13 91 1016.3
20260507044055 13 0 0.0 1.6 0.00 0.13 0.13 90 1016.2
20260507043556 13 0 0.0 1.6 0.00 0.13 0.13 90 1016.3
20260507043102 13 0 0.0 1.6 0.00 0.13 0.13 91 1016.3
20260507042556 13 0 0.0 1.6 0.00 0.13 0.13 91 1016.5
20260507042055 13 0 0.0 0.0 0.00 0.13 0.13 90 1016.5
20260507041605 13 0 0.0 1.6 0.00 0.13 0.13 91 1016.5
20260507041055 13 0 0.0 1.6 0.00 0.13 0.13 91 1016.5
20260507040555 13 0 0.0 1.6 0.00 0.13 0.13 91 1016.5
20260507040059 13 0 0.0 1.6 0.00 0.13 0.13 91 1016.6
20260507035555 13 0 0.0 1.6 0.00 0.13 0.13 91 1016.5
20260507035055 13 0 0.0 1.6 0.00 0.13 0.13 91 1016.5
20260507034557 13 0 0.0 1.6 0.00 0.13 0.13 91 1016.5
20260507034056 13 0 0.0 1.6 0.00 0.13 0.13 91 1016.6
20260507033557 13 0 0.0 1.6 0.00 0.13 0.13 91 1016.3
20260507033053 13 0 0.0 0.0 0.00 0.13 0.13 91 1016.4
20260507032554 14 0 0.0 0.0 0.00 0.13 0.13 91 1016.5
20260507032054 14 0 0.0 0.0 0.00 0.13 0.13 91 1016.4
20260507031558 14 0 0.0 0.0 0.00 0.13 0.13 90 1016.6
20260507031059 14 0 0.0 0.0 0.00 0.13 0.13 90 1016.4
20260507030555 14 0 0.0 0.0 0.00 0.13 0.13 90 1016.4
20260507025555 14 0 0.0 3.2 0.00 0.13 0.13 90 1016.3
20260507025055 14 0 0.0 3.2 0.00 0.13 0.13 89 1016.2
20260507024553 15 0 0.0 1.6 0.00 0.13 0.13 89 1016.2
20260507024055 15 0 0.0 1.6 0.00 0.13 0.13 89 1016.0
20260507023556 15 0 0.0 1.6 0.00 0.13 0.13 89 1016.0
20260507023111 15 0 0.0 1.6 0.00 0.13 0.13 89 1015.7
20260507022556 15 0 0.0 1.6 0.00 0.13 0.13 89 1015.9
20260507022055 15 0 0.0 1.6 0.00 0.13 0.13 88 1015.7
20260507021557 15 0 0.0 1.6 0.00 0.13 0.13 88 1015.6
20260507021055 15 0 0.0 1.6 0.00 0.13 0.13 88 1015.6
20260507020555 15 0 0.0 1.6 0.00 0.13 0.13 88 1015.4
20260507020054 15 0 0.0 1.6 0.00 0.13 0.13 88 1015.3
20260507015554 15 0 0.0 1.6 0.00 0.13 0.13 87 1015.2
20260507015055 15 0 0.0 3.2 0.00 0.13 0.13 87 1015.2
20260507014606 15 261 0.0 3.2 0.00 0.13 0.13 87 1015.0